Location: Unspecified
(49.2170°N, 0.0000°E)
Time: 19:47:27
(UTC+00:00)

Transit 2A - Pass Details

Date: 22 June 2019
Orbit: 594 x 964 km, 66.7° (Epoch: 21 July)

Event Time Altitude Azimuth Distance (km) Brightness Sun altitude
Exits shadow 23:55:30 27° 181° (S) 1,742 7.2 -17.3°
Maximum altitude 23:58:45 53° 118° (ESE) 1,164 6.7 -17.3°
Drops below altitude 10° 00:04:48 10° 43° (NE) 2,650 9.5 -17.3°
Sets 00:07:21 0° 39° (NE) 3,561 10.3 -17.3°
